Regional Weather Roundup
Issued by NWS Northern Indiana

Home | Current Version | Previous Version | Text Only | Print | Product List | Glossary Off
Versions: 1 2 3 4 5 6 7 8 9 10 11 12 13 14 15 16 17 18 19 20 21 22 23 24 25 26 27 28 29 30 31 32 33 34 35 36 37 38 39 40 41 42 43 44 45 46 47 48 49 50

000
ASUS43 KIWX 121610
RWRIWX

KIWX WEATHER ROUNDUP
NATIONAL WEATHER SERVICE NORTHERN INDIANA
1100 AM EST FRI FEB 12 2016

NOTE: "FAIR" INDICATES FEW OR NO CLOUDS BELOW 12,000 FEET WITH NO
SIGNIFICANT WEATHER AND/OR OBSTRUCTIONS TO VISIBILITY.

* THESE STATIONS ARE NOT UNDER NWS QUALITY CONTROL. THEY ALSO MAY NOT
  REPORT WEATHER SUCH AS PRECIPITATION OR FOG.

INZ001>027-121700-
NORTHERN INDIANA

CITY           SKY/WX    TMP DP  RH WIND       PRES   REMARKS
GARY*          LGT SNOW  23  14  68 W17G29    30.15S WCI   9
VALPARAISO     CLOUDY    22  11  62 W13G23    30.12F WCI  10
MICHIGAN CITY* LGT SNOW  23  14  68 W7G20     30.12S WCI  15
LAPORTE*       FLURRIES  23  13  64 W13G22    30.11F WCI  11
KNOX*          CLOUDY    23  12  63 W16       30.12F WCI  10
SOUTH BEND     LGT SNOW  20  12  71 W12       30.09F WCI   8
ELKHART*       FLURRIES  19  10  68 W15       30.09F WCI   5
GOSHEN         CLOUDY    21  12  68 W16G24    30.08F WCI   7
MONTICELLO*    CLOUDY    23  14  68 W10       30.16R WCI  13
LOGANSPORT*    LGT SNOW  23  14  68 W12G18    30.16R WCI  12
ROCHESTER*     CLOUDY    27  12  54 W13G20    30.12F WCI  16
WARSAW*        CLOUDY    23  12  63 W18       30.10F WCI   9
ANGOLA*        CLOUDY    19  12  73 W12       30.04F WCI   7
FORT WAYNE     CLOUDY    22  10  60 W15       30.11F WCI   9
HUNTINGTON*    CLOUDY    22   7  53 W14G20    30.12S WCI   9
PERU/GRISSOM   FLURRIES  22  16  75 W14       30.13F WCI  10
MARION*        CLOUDY    23   5  47 W14       30.14S WCI  10

$$
INZ028>050-121700-
CENTRAL INDIANA

CITY           SKY/WX    TMP DP  RH WIND       PRES   REMARKS
LAFAYETTE      CLOUDY    23  16  74 W12       30.18R WCI  12
KOKOMO*        CLOUDY    21  12  68 W17       30.15R WCI   7
MUNCIE*        CLOUDY    24  10  55 W14       30.13S WCI  12
INDIANAPOLIS   CLOUDY    25  11  55 W12       30.15F WCI  14

$$
MIZ043>046-050>051-056>058-064>065-071>073-077>080-121700-
SOUTHWEST LOWER MICHIGAN

CITY           SKY/WX    TMP DP  RH WIND       PRES   REMARKS
BATTLE CREEK   LGT SNOW  20  15  81 SW14      30.01F VSB 3/4 WCI   7
BENTON HARBOR  LGT SNOW  22  16  78 W14G21    30.08F VSB 1   WCI   9
COLDWATER*     CLOUDY    21  13  71 W13       30.03F WCI   8
HILLSDALE*     CLOUDY    20  10  66 W13G20    30.00F WCI   7
HOLLAND        LGT SNOW  21  15  78 NW16      30.05S WCI   7
GRAND RAPIDS   LGT SNOW  21  17  84 W14G20    30.01F VSB 1   WCI   8
KALAMAZOO      LGT SNOW  20  15  81 SW9       30.03F VSB 1   WCI   9
STURGIS*       FLURRIES  19  13  74 W13       30.04F WCI   7
THREE RIVERS*  LGT SNOW  20  14  77 W8        30.05F WCI  11

$$
OHZ001>008-015>018-024>025-121700-
NORTHWEST OHIO

CITY           SKY/WX    TMP DP  RH WIND       PRES   REMARKS
DEFIANCE       CLOUDY    23  10  57 SW12G18   30.09F WCI  12
FINDLAY        CLOUDY    22  10  60 SW13      30.09F WCI  10
TOLEDO EXPRESS CLOUDY    21   9  59 SW15G25   30.06F WCI   8
TOLEDO METCALF   N/A    N/A N/A N/A MISG      30.07F
LIMA           CLOUDY    22  11  62 SW16      30.09F WCI   8

$$
AND FOR LAKE MICHIGAN COASTAL AND OPEN LAKE BUOY OBSERVATIONS

STATION/POSITION TEMP    WIND        PRES    VSBY  WAVE
                 AIR SEA DIR/SP/G                  HT/PER
                 (F)     (DEG/KT/KT) (MB)    (MI)  (FT/S)
CALUMET HARBOR    21     270/  7/ 12 1019.9S
MICHIGAN CITY     22     250/ 20/ 24   N/A
BURNS HARBOR      22     280/ 18/ 22 1020.3F
SAINT JOSEPH      24     270/ 15/ 22 1019.3F

$$
&&



USA.gov is the U.S. government's official web portal to all federal, state and local government web resources and services.